Fort Campbell, KY

6:53 AM CST on December 09, 2016 (GMT -0600)
Campbell Army Air Field

Weather History for KHOP - February, 2014

Change the Weather History Date:

Thursday, February 13, 2014

  Actual Average Record
Temperature  
Mean Temperature 34 °F -  
Max Temperature 47 °F 49 °F 64 °F (2000)
Min Temperature 20 °F 30 °F 16 °F (2015)
Degree Days  
Heating Degree Days 32    
Moisture  
Dew Point 20 °F    
Average Humidity 61    
Maximum Humidity 95    
Minimum Humidity 26    
Precipitation  
Precipitation 0.00 in - - ()
Sea Level Pressure  
Sea Level Pressure 29.90 in    
Wind  
Wind Speed 6 mph (West)    
Max Wind Speed 14 mph    
Max Gust Speed -    
Visibility 10 miles    
Events      
Averages and records for this station are not official NWS values.
T = Trace of Precipitation, MM = Missing Value Source: NWS Daily Summary

Daily Weather History Graph

Daily Weather History Graph

Search for Another Location

Airport or City:

Trip Planner

Search our weather history database for the weather conditions in past years. The results will help you decide how hot, cold, wet, or windy it might be!

Date:

Astronomy

Feb. 13, 2014 Rise Set
Actual Time 6:40 AM CST 5:28 PM CST
Civil Twilight 6:13 AM CST 5:55 PM CST
Nautical Twilight 5:43 AM CST 6:25 PM CST
Astronomical Twilight 5:13 AM CST 6:55 PM CST
Moon 4:36 PM CST (2/13) 5:32 AM CST (2/13)
Length of Visible Light 11h 41m
Length of Day
10h 48m
Waxing Gibbous, 99% of the Moon is Illuminated
Feb 13
Waxing Gibbous
Feb 14
Full
Feb 22
Last Quarter
Mar 1
New
Mar 8
First Quarter

Hourly Weather History & Observations

Time (CST) Temp. Windchill Dew Point Humidity Pressure Visibility Wind Dir Wind Speed Gust Speed Precip Events Conditions
12:58 AM 27.1 °F 21.8 °F 22.3 °F 82% 29.95 in 10.0 mi NW 4.6 mph - N/A   Clear
1:58 AM 26.1 °F 20.5 °F 21.7 °F 84% 29.95 in 10.0 mi NNW 4.6 mph - N/A   Clear
2:58 AM 24.6 °F 20.3 °F 21.0 °F 86% 29.94 in 10.0 mi NW 3.5 mph - N/A   Clear
3:58 AM 23.4 °F 17.4 °F 20.8 °F 90% 29.95 in 10.0 mi WNW 4.6 mph - N/A   Clear
4:58 AM 23.0 °F 14.7 °F 21.6 °F 94% 29.96 in 10.0 mi WNW 6.9 mph - N/A   Clear
5:58 AM 20.7 °F 14.2 °F 19.4 °F 95% 29.97 in 10.0 mi WNW 4.6 mph - N/A   Clear
6:58 AM 21.6 °F 12.1 °F 19.6 °F 92% 29.98 in 10.0 mi NW 8.1 mph - N/A   Clear
7:58 AM 24.6 °F 18.8 °F 20.1 °F 83% 29.99 in 10.0 mi NNW 4.6 mph - N/A   Clear
8:58 AM 29.7 °F 26.1 °F 21.0 °F 70% 29.99 in 10.0 mi Variable 3.5 mph - N/A   Clear
9:58 AM 33.8 °F - 21.2 °F 60% 29.97 in 10.0 mi Calm Calm - N/A   Clear
10:58 AM 37.8 °F - 19.6 °F 48% 29.95 in 10.0 mi Variable 1.2 mph - N/A   Clear
11:58 AM 42.8 °F 41.1 °F 16.5 °F 35% 29.92 in 10.0 mi Variable 3.5 mph - N/A   Clear
12:58 PM 45.3 °F 42.3 °F 19.4 °F 36% 29.89 in 10.0 mi WSW 5.8 mph - N/A   Clear
1:58 PM 47.3 °F - 17.2 °F 30% 29.86 in 10.0 mi West 9.2 mph - N/A   Clear
2:58 PM 46.6 °F - 18.7 °F 33% 29.85 in 10.0 mi West 13.8 mph - N/A   Clear
3:58 PM 46.0 °F 40.6 °F 12.2 °F 26% 29.84 in 10.0 mi West 11.5 mph - N/A   Clear
4:58 PM 43.7 °F 39.1 °F 15.3 °F 32% 29.82 in 10.0 mi West 8.1 mph - N/A   Clear
5:58 PM 38.1 °F 30.7 °F 17.8 °F 44% 29.81 in 10.0 mi SW 11.5 mph - N/A   Clear
6:58 PM 35.8 °F 28.3 °F 19.4 °F 51% 29.81 in 10.0 mi SW 10.4 mph - N/A   Clear
7:58 PM 34.2 °F 26.8 °F 19.2 °F 54% 29.82 in 10.0 mi WSW 9.2 mph - N/A   Clear
8:58 PM 36.9 °F 29.1 °F 22.3 °F 56% 29.83 in 10.0 mi WSW 11.5 mph - N/A   Clear
9:58 PM 35.8 °F 27.3 °F 23.2 °F 60% 29.82 in 10.0 mi SW 12.7 mph - N/A   Clear
10:58 PM 36.3 °F 28.0 °F 24.8 °F 63% 29.82 in 10.0 mi SW 12.7 mph - N/A   Clear
11:58 PM 36.7 °F 28.0 °F 25.7 °F 64% 29.82 in 10.0 mi WSW 13.8 mph - N/A   Clear